NOAA-16
1 26536U 00055A 08044.88869612 -.00000125 00000-0 -42385-4 0 08069
2 26536 099.1480 031.3991 0010084 211.2520 148.8074 14.12467424381220
NOAA-17
1 27453U 02032A 08044.82145280 -.00000024 00000-0 81807-5 0 08067
2 27453 098.5494 112.9741 0012710 110.1367 250.1182 14.23948438293107
NOAA-18
1 28654U 05018A 08044.83000279 .00000264 00000-0 17065-3 0 03172
2 28654 098.8568 347.3683 0013797 308.2653 051.7300 14.11136654140934
HUBBLE
1 20580U 90037B 08044.28668243 .00000348 00000-0 14130-4 0 00729
2 20580 028.4686 057.8271 0004129 139.9962 220.0932 15.00336558776202
UARS
1 21701U 91063B 08044.91838600 .00006208 00000-0 10089-3 0 03015
2 21701 056.9759 343.1709 0081168 302.0178 057.3011 15.50576522903216
PO-34
1 25520U 98064B 08044.93654621 .00000545 00000-0 17075-4 0 09328
2 25520 028.4600 290.5913 0005271 010.9585 349.1121 15.17132111514271
ISS
1 25544U 98067A 08046.07934068 -.00003669 00000-0 -17028-4 0 9229
2 25544 051.6360 291.0182 0005713 044.9489 042.0622 15.78232706529104
OO-38
1 26063U 00004C 08044.83589622 -.00000031 00000-0 96153-5 0 01378
2 26063 100.2077 096.9155 0036796 199.4022 160.5740 14.35827325421728
UWE-1
1 28892U 05043C 08044.73072745 .00000178 00000-0 47009-4 0 09767
2 28892 098.1095 301.2517 0018454 078.3155 282.0144 14.59592411122448
CO-58
1 28895U 05043F 08044.70215326 .00000174 00000-0 46219-4 0 09488
2 28895 098.1136 301.5315 0019014 079.4917 280.8433 14.59634733122325
NCUBE2
1 28897U 05043H 08044.68110962 .00000128 00000-0 36300-4 0 4773
2 28897 098.1113 301.4489 0018229 079.6836 280.6448 14.59802501114608
FCAL
1 29667U 06055J 08045.88057851 .00049040 12461-4 89956-4 0 7517
2 29667 051.6299 251.3016 0008706 216.8535 143.1870 16.01706291 66709
FALCON
1 30776U 07006E 08044.75246481 .00000383 00000-0 31043-4 0 02609
2 30776 035.4321 188.1043 0001785 344.6798 015.3864 15.02877839051418
MAST
1 31126U 07012K 08044.77085092 .00000033 00000-0 18271-4 0 02562
2 31126 098.0541 114.0977 0095083 358.1447 001.9373 14.53398838043943
CAPE1
1 31130U 07012P 08044.73415967 .00000093 00000-0 32593-4 0 02458
2 31130 098.0531 113.3567 0102862 000.3360 359.7883 14.51930907043664
